Regional Weather Roundup
Issued by NWS Upton, NY

Current Version | Previous Version | Graphics & Text | Print | Product List | Glossary Off
Versions: 1 2 3 4 5 6 7 8 9 10 11 12 13 14 15 16 17 18 19 20 21 22 23 24 25 26 27 28 29 30 31 32 33 34 35 36 37 38 39 40 41 42 43 44 45 46 47 48 49 50

000
ASUS41 KOKX 260408
RWROKX

REGIONAL WEATHER ROUNDUP
NATIONAL WEATHER SERVICE NEW YORK NY
1100 PM EST SAT FEB 25 2017

NOTE: "FAIR" INDICATES FEW OR NO CLOUDS BELOW 12,000 FEET WITH NO
SIGNIFICANT WEATHER AND/OR OBSTRUCTIONS TO VISIBILITY.

NYZ071-072-176-178-NJZ106-104-260500-
NEW YORK CITY METRO AREA

CITY           SKY/WX    TMP DP  RH WIND       PRES   REMARKS
Central Park   CLOUDY    47  39  74 NW8G16    29.65R
Wall St Helipt NOT AVBL
LaGuardia APRT MOCLDY    49  39  68 NW24      29.62R
Kennedy INTL   MOCLDY    50  41  71 W16       29.62R
Breezy Point     N/A     48 N/A N/A NW15G23     N/A
Newark/Liberty LGT RAIN  49  39  68 NW21G29   29.63R
Teterboro      CLOUDY    47  38  71 NW15      29.64R
$$

NYZ177-179-078>081-260500-
LONG ISLAND NEW YORK

CITY           SKY/WX    TMP DP  RH WIND       PRES   REMARKS
Jones Beach      N/A     48 N/A N/A NW17G26     N/A
Matinecock PT    N/A     46 N/A N/A W15         N/A
Farmingdale    MOCLDY    48  43  82 NW10G21   29.60S
MacArthur/ISP  MOCLDY    46  43  89 W13       29.60R
Shirley        CLOUDY    46  43  89 W10       29.58S
Westhampton    LGT RAIN  47  42  83 NW8       29.55F
Southampton    NOT AVBL
Bridgehampton  NOT AVBL
East Hampton   LGT RAIN  47  44  89 N10       29.52S
Montauk          N/A     47  45  93 NW12G21   29.53S
$$

NYZ052-065-067-260500-
HUDSON VALLEY

CITY           SKY/WX    TMP DP  RH WIND       PRES   REMARKS
White Plains   MOCLDY    45  39  79 NW14      29.60R
Newburgh       MOCLDY    41  39  93 N7        29.63R
Montgomery     PTCLDY    42  34  73 NW9       29.62R
Poughkeepsie   MOCLDY    39  36  89 VRB5      29.62S
Albany         CLOUDY    38  30  73 W13       29.65R WCI  30
$$

NJZ001-105-106-008-010-013-015-019>022-104-260500-
NEW JERSEY

CITY           SKY/WX    TMP DP  RH WIND       PRES   REMARKS
Newark/Liberty LGT RAIN  49  39  68 NW21G29   29.63R
Teterboro      CLOUDY    47  38  71 NW15      29.64R
Caldwell       CLOUDY    45  36  70 NW9G16    29.65R
Somerville     CLOUDY    47  35  63 NW12G23   29.64R
Linden         NOT AVBL
Sussex         CLOUDY    42  34  73 N7        29.69R
Andover          N/A     41  35  79 N7        29.68R
Trenton        CLOUDY    47  35  63 NW14G23   29.67R
Millville      MOCLDY    48  36  63 NW15G24   29.71R
Atlantic City  CLOUDY    49  43  80 W13       29.70R
Wrightstown    CLOUDY    47  39  73 NW15G25   29.64F
Toms River     MOCLDY    46  43  89 W8        29.67R
Belmar         MOCLDY    47  39  74 W13G21    29.67R
$$

PAZ047>061-062-071-260500-
EASTERN PENNSYLVANIA

CITY           SKY/WX    TMP DP  RH WIND       PRES   REMARKS
Philadelphia   CLOUDY    49  34  56 NW16G25   29.71R
Allentown      PTCLDY    44  28  53 W12       29.70R
Scranton       CLOUDY    37  37 100 VRB5      29.70R WCI  33
$$

CTZ002-004>006-009-010-012-RIZ004-006-007-MAZ004-011-015-260500-
SOUTHERN NEW ENGLAND
 IN CT

CITY           SKY/WX    TMP DP  RH WIND       PRES   REMARKS
Bradley INTL   CLOUDY    42  37  82 NW9       29.59R
Hartford       CLOUDY    43  37  79 N14       29.59R
Danbury        CLOUDY    41  35  79 N12       29.61R
Wtrbury/Oxford CLOUDY    39  34  81 N14G23    29.60R WCI  31
Bridgeport     MOCLDY    46  38  73 N14G25    29.59R
Meriden        MOCLDY    44  36  73 N12       29.59S
New Haven      CLOUDY    45  39  79 NW13G25   29.58R
Chester        LGT RAIN  45  41  87 NW14G22   29.54F
Groton         LGT RAIN  45  42  89 NW16G25   29.52S
Wilimantic     CLOUDY    46  41  82 N5        29.54F

 IN RI

CITY           SKY/WX    TMP DP  RH WIND       PRES   REMARKS
Providence     LGT RAIN  50  48  93 NW21G30   29.49F
Block Island   CLOUDY    47  47 100 W15G25    29.52S
Westerly       CLOUDY    47  43  86 NW12G24   29.53R
 IN MA

CITY           SKY/WX    TMP DP  RH WIND       PRES   REMARKS
Boston         LGT RAIN  53  51  93 W16G26    29.49R
Worcester      CLOUDY    42  37  82 W18G28    29.49F
Westfield      CLOUDY    42  36  79 NW16      29.58R
Provincetown   MOCLDY    48  48 100 S16G23    29.48S FOG
Nantucket      LGT RAIN  46  45  96 SW8       29.50F VSB 1/4
$$

ANZ330-335-338-340-345-350-353-355-260500-
COASTAL MARINE OBSERVATIONS


STATION/POSITION TIME  SKY/WX   TEMP    WIND        PRES    VSBY  WAVE
                                AIR SEA DIR/SP/G                  HT/PER
                 (UTC)          (F)     (DEG/KT/KT) (MB)    (MI)  (FT/S)
NY HARB ENTRANCE 0250            47 45  300/ 10/ 12 1002.1          6/11
20 S FIRE ISLAND 0350            47 44  290/ 17/ 21 1002.3          6/11
GREAT SOUTH BAY  NOT AVBL
23 SSW MONTAUK P 0250            50 45              1000.1          7/11
15 E BARNEGAT LI 0330               45                N/A           5/ 9
HUDSON CANYON    0250               48              1000.3          8/11
KINGS POINT      0342            46 41              1002.8
EXECUTION ROCKS  NOT AVBL
CENTRAL LI SOUND 0315            45     320/ 12/ 17   N/A           1/ 2
EASTERN LI SOUND NOT AVBL
ROBBINS REEF     0342            49     300/ 18/ 22 1003.3
$$


>>>>>>>>>>>>>>>>>>>>>>>>>>>> KEY <<<<<<<<<<<<<<<<<<<<<<<<<<<
>                                                          <
>     SKY/WX - Sky Condition/Present Weather               <
>     TMP    - Temperature in Fahrenheit                   <
>     DP     - Dew Point in Fahrenheit                     <
>     RH     - Relative Humidity in Percent                <
>     WIND   - Direction (from) and Speed in MPH           <
>     PRES   - Mean Sea Level Pressure (inches of Hg)      <
>     WCI    - Wind Chill Index                            <
>     VSB    - VISIBILITY IN MILES                         <
>     HX     - HEAT INDEX                                  <
>     TC     - TEMPERATURE IN CELSIUS                      <
>     VRB    - VARIABLE WIND DIRECTION                     <
>                                                          <
>>>>>>>>>>>>>>>>>>>>>>>>>>>> KEY <<<<<<<<<<<<<<<<<<<<<<<<<<<



USA.gov is the U.S. government's official web portal to all federal, state and local government web resources and services.